SCP
0 0 -0 0 0 0 0 0 0 0 0 0 0 0 -0 0 0 0 -0 0 0 -0 -0 -0 -0 -0 -0 -0 -0 -0 -0 -0 -0 -0 -0 -0 -0 -0 -0 -0 -0 -0 0 0 -0 -0 -0 0 0
0 0 0 0 0 0 0 0 0 0 0 0 0 0 0 0 0 0 -0 0 0 0 0 -0 -0 -0 -0 -0 -0 -0 -0 -0 -0 -0 -0 -0 -0 -0 -0 -0 0 0 0 0 0 0 0 0 0
0 0 0 0 0 0 0 0 0 0 0 0 0 0 0 0 0 0 0 0 0 0 0 -0 0 -0 -0 -0 -0 -0 -0 -0 -0 -0 -0 -0 0 -0 -0 -0 0 0 0 0 0 0 0 0 0
0 0 0 0 0 0 0 0 0 0 0 0 0 0 0 0 0 0 0 0 0 0 0 0 0 0 0 -0 -0 -0 -0 -0 -0 0 0 -0 -0 -0 0 0 0 0 0 0 0 0 0 0 0
0 0 0 0 0 0 0 0 0 0 0 0 0 0 0 0 0 0 0 0 0 0 0 0 0 0 0 0 0 0 -0 -0 0 0 0 0 0 0 0 0 0 0 0 0 0 0 0 0 0
0 0 0 0 0 0 0 0 0 0 0 0 0 0 0 0 0 0 0 0 0 0 0 0 0 0 0 0 0 0 0 0 0 0 0 0 0 0 0 0 0 0 0 0 0 0 0 0 0
0 0 0 0 0 0 0 0 0 0 0 0 0 0 0 0 0 0 0 0 0 0 0 0 0 0 0 0 0 0 0 0 0 0 0 0 0 0 0 0 0 0 0 0 0 0 0 0 0
0 0 0 0 0 0 0 0 0 0 0 0 0 0 0 0 0 0 0 0 0 0 0 0 0 0 0 0 0 0 0 0 0 0 0 0 0 0 0 0 0 0 0 0 0 0 0 0 0
0 0 0 0 0 0 0 0 0 0 0 0 0 0 0 0 0 0 0 0 0 0 0 0 0 0 0 0 0 0 0 0 0 0 0 0 0 0 0 0 0 0 0 0 0 0 0 0 0
0 0 0 0 0 0 0 0 0 0 0 0 0 0 0 0 0 0 0 0 0 0 0 0 0 0 0 0 0 0 0 0 0 0 0 0 0 0 0 0 0 0 0 0 0 0 0 0 0
0 0 0 0 0 0 0 0 0 0 0 0 0 0 0 -0 0 0 0 0 0 0 0 0 0 0 0 0 0 0 0 0 0 0 0 0 0 0 0 0 0 0 0 0 0 0 0 0 0
0 0 0 0 0 0 0 0 0 0 0 0 0 0 0 -0 0 0 0 0 0 0 0 0 0 0 0 0 0 0 0 0 0 0 0 0 0 0 0 0 0 0 0 0 0 0 0 0 0
0 0 0 0 0 0 0 0 0 0 0 0 0 0 0 0 0 0 0 0 0 0 0 0 0 0 0 0 0 0 0 0 0 0 0 0 0 0 0 0 0 0 0 0 0 0 0 0 0
0 0 0 0 0 0 0 0 0 0 0 0 0 0 0 0 0 0 0 0 0 0 0 0 0 0 0 0 0 0 0 0 0 0 0 0 0 0 0 0 0 0 0 0 0 0 0 0 0
0 0 0 0 0 0 0 0 0 0 0 0 0 0 0 0 0 0 0 0 0 0 0 0 0 0 0 0 0 0 0 0 0 0 0 0 0 0 0 0 0 0 0 0 -0 -0 -0 -0 0
0 0 0 0 0 0 0 0 0 0 0 0 0 0 0 0 0 0 0 0 0 0 0 0 0 0 0 0 0 0 0 0 0 0 0 0 0 0 0 0 0 0 0 0 0 -0 -0 -0 -0
0 0 0 0 0 0 0 0 0 0 0 0 0 0 0 0 0 0 0 0 0 0 0 0 0 0 0 0 0 0 0 0 0 0 0 0 0 0 0 0 0 0 0 0 0 0 -0 -0 -0
0 0 0 0 0 0 0 0 0 0 0 0 0 0 0 0 0 0 0 0 0 0 0 0 0 0 0 0 0 0 0 0 0 0 0 0 0 0 0 0 0 0 0 0 0 0 0 -0 -0
0 0 0 0 0 0 0 0 0 0 0 0 0 0 0 0 0 0 0 0 0 0 0 0 0 0 0 0 0 0 0 0 0 0 0 0 0 0 0 0 0 0 0 0 0 0 0 0 0
0 0 0 0 0 0 0 0 0 0 0 0 0 0 0 0 0 0 0 0 0 0 0 0 0 0 0 0 0 0 0 0 0 0 0 0 0 0 0 0 0 0 0 0 0 0 0 0 0
0 0 0 0 0 0 0 -0 0 0 0 0 0 0 0 0 0 0 0 0 0 0 0 0 0 0 0 0 0 0 0 0 0 0 0 0 0 0 0 -0 0 0 0 0 0 0 0 0 0
0 0 0 0 0 0 0 -0 0 0 0 0 0 0 0 0 0 0 0 0 0 0 0 0 0 0 0 0 0 0 0 0 0 0 0 0 0 0 0 0 0 0 0 0 0 0 0 0 0
0 0 0 0 0 0 0 0 0 0 0 0 0 0 0 0 0 0 0 0 0 0 0 0 0 0 0 0 0 0 0 0 0 0 0 0 0 0 0 0 0 0 0 0 0 0 0 0 0
0 0 0 0 0 0 0 0 0 0 0 0 0 0 0 0 0 0 0 0 0 0 0 0 0 0 0 0 0 0 0 0 0 0 0 0 0 0 0 0 0 0 0 0 0 0 0 0 0
0 0 0 0 0 0 0 0 0 0 0 0 0 0 0 0 0 0 0 0 0 0 0 0 0 0 0 0 0 0 0 0 0 0 0 0 0 0 0 0 0 0 0 0 0 0 0 0 0
0 0 0 0 0 -0 0 0 0 0 0 0 0 0 0 0 0 0 0 0 0 0 0 0 0 0 0 0 0 0 0 0 0 0 0 0 0 0 0 0 0 0 0 0 0 0 0 0 0
0 0 0 0 0 0 0 0 0 0 0 0 0 0 0 0 0 0 0 0 0 0 0 0 0 0 0 0 0 0 0 0 0 0 0 0 0 0 0 0 0 0 0 0 0 0 0 0 0
0 0 0 0 0 0 0 0 0 0 0 0 0 0 0 0 0 0 0 0 0 0 0 0 0 0 0 0 0 0 0 0 0 0 0 0 0 0 0 0 0 0 0 0 0 0 0 0 0
0 0 0 0 0 0 0 0 0 0 0 0 0 0 0 0 0 0 0 0 0 0 0 0 0 0 0 0 0 0 0 0 0 0 0 0 0 0 0 0 0 0 0 0 0 0 0 0 0
0 0 0 0 0 0 0 0 0 0 0 0 0 0 0 0 0 0 0 0 0 0 0 0 0 0 0 0 0 0 0 0 0 0 0 0 0 0 0 0 0 0 0 0 0 0 0 0 0
Wind_Speed_500mb
14 14 10 2 8 6 7 10 2 14 12 6 13 14 20 2 6 2 18 21 11 3 2 5 7 10 12 12 11 14 16 16 18 21 21 20 21 21 22 21 20 21 22 23 22 22 22 22 25
9 8 3 3 8 8 6 11 18 16 10 21 14 8 8 6 7 8 19 15 7 3 3 6 7 8 11 13 13 17 18 22 23 24 23 24 26 29 31 31 30 31 31 30 28 27 28 28 28
12 9 4 4 4 8 2 15 15 13 26 14 10 7 5 4 13 17 23 17 10 5 8 9 7 9 10 11 15 20 23 24 26 27 29 33 34 35 32 32 35 37 37 38 38 37 36 35 35
11 5 2 9 8 3 4 15 17 27 15 11 7 7 7 20 15 24 27 19 13 12 10 4 5 7 6 5 7 10 12 15 18 20 22 27 30 34 35 37 38 38 40 42 42 43 43 43 41
12 5 6 6 7 5 7 13 26 27 17 15 16 6 7 24 28 28 29 24 20 16 13 9 7 3 4 6 7 8 10 12 15 18 19 24 26 30 33 36 38 42 43 43 43 46 47 45 45
7 4 8 10 7 6 7 16 24 27 13 10 12 8 5 21 34 36 33 29 25 21 16 12 10 10 11 11 13 14 14 15 15 16 19 22 25 28 31 35 38 40 42 44 50 51 51 48 49
6 6 5 5 5 6 8 20 26 30 21 17 6 10 7 27 41 40 38 34 28 23 18 16 15 16 16 15 14 14 14 15 16 17 19 22 26 29 32 35 38 42 43 43 47 49 54 56 55
5 4 6 7 6 7 13 21 11 28 24 18 20 12 10 34 48 48 43 38 33 29 26 24 23 22 17 15 12 9 7 7 10 13 14 18 20 23 26 29 33 38 39 39 44 48 51 51 55
6 7 8 7 11 5 16 18 12 14 11 18 23 23 21 22 51 53 50 46 43 38 35 32 30 25 20 18 14 11 7 6 6 8 12 15 19 24 27 31 35 37 39 41 43 42 44 48 53
7 6 6 3 8 6 14 22 16 13 19 21 28 44 37 29 53 59 58 55 51 46 42 38 34 28 25 20 16 11 8 5 4 6 10 14 19 24 29 31 32 34 38 41 42 42 43 43 46
3 6 3 6 12 10 11 13 14 16 22 34 38 37 48 44 56 60 58 53 51 48 46 41 35 30 25 20 17 14 10 8 8 10 13 18 23 28 32 35 37 39 39 40 42 43 44 44 44
7 9 7 3 9 10 10 9 13 34 45 25 26 32 37 53 61 65 62 58 59 54 49 43 38 32 27 22 19 15 13 10 10 12 15 19 24 29 33 37 40 42 43 43 43 44 46 46 46
9 7 10 12 13 16 13 22 20 37 45 45 45 37 40 49 59 61 60 62 62 60 54 50 43 37 32 28 23 21 16 13 13 15 17 21 26 32 36 40 43 45 47 47 47 47 47 49 52
4 9 15 13 17 14 14 14 6 16 21 36 47 50 49 53 59 60 70 72 71 63 60 54 47 40 35 30 27 24 20 17 16 17 20 23 28 34 40 44 46 48 49 50 52 54 56 57 58
3 13 14 24 12 10 11 16 24 44 32 30 39 43 49 57 59 73 74 78 75 70 64 59 51 44 39 37 34 27 22 18 19 19 21 26 32 36 40 43 47 51 55 59 60 61 62 64 65
6 5 9 9 17 6 10 30 24 22 29 37 39 40 48 58 67 69 73 76 73 71 70 62 55 49 45 40 35 29 24 22 20 20 21 25 30 35 39 44 48 51 55 58 62 64 67 69 72
10 20 17 9 23 8 22 30 8 20 27 41 46 46 50 53 62 71 77 77 78 76 70 65 58 52 46 40 34 30 27 25 23 21 21 25 30 35 40 45 49 52 55 59 63 66 69 75 76
23 15 17 21 10 17 20 40 44 54 38 66 70 58 56 56 70 71 79 80 81 78 72 66 62 58 50 43 39 36 34 30 24 20 22 27 33 38 42 46 50 54 59 62 65 68 69 71 74
14 15 33 31 7 11 35 39 49 62 56 69 71 62 57 62 58 65 75 79 83 81 77 72 69 62 54 49 45 43 39 33 28 25 25 28 34 39 44 47 49 54 59 63 68 71 73 72 76
18 26 40 27 5 14 27 43 46 45 61 71 73 72 53 49 45 56 71 81 89 87 83 78 74 67 59 56 52 50 45 39 34 28 25 30 35 40 46 46 47 54 61 65 66 70 70 69 65
23 35 29 22 10 13 21 33 15 14 37 50 67 66 46 46 46 50 63 78 88 93 91 86 78 72 66 62 56 54 50 44 35 30 31 33 35 40 42 41 48 55 62 66 68 69 69 70 67
27 20 22 16 10 24 6 39 27 21 21 23 62 42 37 44 44 46 51 66 83 94 91 87 81 75 70 65 60 57 51 43 39 35 33 33 37 39 42 45 50 59 64 68 71 72 71 69 68
11 5 10 6 15 12 24 20 20 3 13 35 34 42 38 42 42 42 47 52 60 77 90 87 83 79 75 69 62 57 53 46 43 37 34 37 38 40 42 46 53 61 67 69 69 69 71 71 72
16 6 3 3 6 19 36 30 11 9 14 18 25 28 28 30 34 34 39 40 49 61 81 89 88 85 80 73 65 60 54 48 44 37 37 39 42 42 44 48 59 66 68 69 70 71 71 74 75
10 8 12 14 12 27 5 16 35 25 22 26 33 27 21 25 32 33 39 42 46 56 68 89 94 91 85 76 67 61 54 47 42 39 40 45 44 45 47 54 61 64 67 70 72 74 74 74 76
22 15 12 24 30 46 15 23 27 21 37 50 25 37 24 28 33 40 40 41 46 51 61 82 97 94 87 77 71 63 54 46 43 42 45 44 47 50 52 57 64 67 70 71 72 76 78 80 80
17 16 5 9 4 18 24 48 15 13 24 18 37 32 47 49 45 45 43 43 46 48 57 72 93 97 90 82 73 63 54 48 44 45 44 44 48 51 58 62 68 73 74 74 74 77 79 79 78
9 13 8 7 13 37 52 60 34 22 30 18 21 37 49 45 43 47 47 45 49 50 56 67 88 99 92 83 74 65 56 49 45 43 43 45 48 55 61 67 72 75 74 73 73 75 76 75 80
12 12 10 5 12 20 40 30 8 12 11 21 27 44 34 41 45 58 51 50 55 54 60 69 83 98 98 88 77 67 57 50 43 40 41 46 51 57 63 69 73 75 74 72 73 76 79 79 82
18 32 37 19 20 20 26 62 8 13 9 12 20 32 31 28 37 52 53 56 63 65 67 75 83 99 99 89 78 67 58 48 41 40 42 47 52 56 64 70 72 72 72 73 76 79 79 80 83
Wind_Direction_500mb
156 153 152 149 232 235 158 176 190 168 178 159 148 196 209 23 202 328 163 169 177 197 14 302 273 265 276 273 258 243 233 236 239 245 252 260 267 267 266 265 270 268 272 278 285 289 292 301 303
172 159 128 245 252 237 152 160 196 174 140 134 139 139 177 193 169 163 158 171 170 204 15 310 310 296 286 272 261 259 258 262 270 274 276 276 275 273 279 280 278 276 274 273 274 276 281 284 286
161 169 220 240 250 271 249 184 178 158 148 153 150 184 184 200 183 168 179 175 176 195 241 263 297 292 275 271 269 264 265 271 276 281 286 291 288 286 286 288 287 285 280 277 278 275 270 272 274
155 150 96 250 252 234 287 178 164 147 184 199 191 194 212 194 177 187 187 184 191 206 216 230 255 259 282 297 286 276 275 280 282 283 285 282 285 288 285 280 278 280 281 283 283 281 279 276 272
173 207 223 237 227 252 214 191 177 173 174 184 187 197 211 201 191 187 183 189 191 197 197 201 224 253 296 298 300 300 292 281 282 285 288 288 290 293 295 293 289 282 277 275 276 277 278 279 277
208 228 235 247 213 226 210 188 184 199 192 172 202 197 207 213 198 191 189 193 194 200 208 217 237 253 268 273 283 293 296 300 302 307 310 311 311 308 305 299 294 293 292 287 280 275 273 272 273
251 227 280 282 271 236 203 171 200 205 214 217 219 225 201 206 200 196 198 198 203 210 218 227 234 243 251 263 273 279 292 308 318 329 335 336 332 330 325 323 318 310 301 292 286 282 277 274 271
186 235 194 203 217 242 167 174 194 203 218 219 201 233 215 210 201 199 202 204 210 213 217 222 229 235 239 245 249 262 282 318 335 343 342 342 340 334 330 327 322 319 316 309 297 289 285 280 274
167 227 234 218 193 159 168 199 194 208 201 204 208 223 227 204 202 201 203 206 210 213 217 220 224 228 231 234 236 239 258 291 326 342 345 340 338 335 333 332 331 328 325 321 317 313 302 288 281
226 257 238 192 189 222 195 215 198 197 206 230 233 235 232 221 206 207 208 209 211 213 216 218 219 219 223 223 225 226 232 250 292 317 332 338 337 335 332 333 332 332 329 327 323 318 315 309 302
213 263 175 231 225 211 211 219 203 228 232 232 227 230 231 222 211 212 215 216 216 217 217 217 219 219 219 221 224 230 244 269 293 322 333 335 337 335 334 332 332 331 332 331 330 329 326 322 317
239 243 225 229 203 188 216 179 217 224 245 253 248 243 236 221 217 217 215 212 213 217 221 222 223 224 225 227 231 241 255 275 299 313 322 328 333 333 332 331 331 331 332 331 329 327 325 323 320
230 216 225 245 241 230 226 235 246 246 251 255 258 253 238 227 223 220 217 218 220 220 221 222 223 223 225 226 232 243 251 264 282 295 310 321 326 331 333 334 331 330 328 327 325 324 323 321 319
198 256 259 263 246 237 231 245 226 256 228 231 243 247 242 233 227 218 217 219 220 221 222 222 223 225 226 229 234 239 244 256 275 293 306 316 327 333 333 331 327 323 320 321 323 323 321 318 316
300 290 274 228 225 237 210 253 233 256 248 243 241 239 236 236 226 229 226 222 222 223 224 225 224 226 225 227 231 235 245 260 276 292 308 324 331 328 326 322 319 318 321 324 324 322 320 318 316
242 252 258 155 174 198 199 273 245 254 241 244 241 235 237 234 232 229 226 224 224 223 223 223 223 224 224 226 230 234 244 257 275 292 308 320 319 319 318 318 319 320 321 321 319 320 319 318 318
215 272 235 272 205 146 211 272 255 246 247 256 251 243 242 238 229 228 226 224 225 224 223 223 223 225 227 229 233 239 246 253 263 276 298 307 311 316 316 317 316 317 319 321 320 321 321 321 320
266 247 253 261 186 214 225 256 275 271 250 262 267 259 248 235 235 233 229 225 224 224 223 224 227 228 228 229 233 238 242 247 255 271 290 303 312 313 312 312 315 321 324 325 324 324 323 322 320
267 260 262 269 204 239 252 256 267 276 273 261 267 262 251 241 248 233 229 226 226 225 225 225 226 227 226 229 232 235 238 242 251 263 283 301 304 305 309 310 318 322 321 321 321 321 320 319 320
234 261 265 281 238 216 271 270 271 265 264 268 270 268 258 247 235 227 227 226 228 229 226 225 226 227 229 232 234 235 235 238 246 259 280 288 296 306 306 313 322 320 318 316 318 318 317 316 318
229 235 255 262 319 232 290 273 239 259 253 269 264 260 253 239 232 223 225 227 228 228 227 227 227 230 231 233 234 235 236 239 249 260 272 285 300 300 304 314 317 314 312 314 315 313 311 310 310
240 230 244 259 289 277 5 290 281 260 251 256 271 260 245 244 235 228 228 227 228 230 229 228 228 230 232 234 234 235 236 241 249 259 275 289 295 303 308 311 311 311 312 313 310 308 305 303 300
247 120 180 206 250 312 254 268 278 139 248 260 259 268 243 232 232 232 236 236 235 231 231 229 229 229 231 234 235 236 239 244 253 263 277 285 296 303 302 309 313 311 307 305 303 301 298 295 292
134 117 154 157 251 255 256 228 273 206 211 251 264 251 233 217 214 224 234 230 230 231 232 228 228 229 231 232 233 236 239 246 256 269 278 291 294 299 307 313 310 304 303 304 301 296 293 292 290
197 178 280 259 231 265 163 237 264 279 236 233 253 262 226 213 210 222 232 227 226 229 230 227 227 227 229 230 232 234 239 248 259 270 284 288 296 303 311 311 304 304 304 302 299 296 295 294 289
185 219 206 266 280 288 112 252 276 226 248 250 262 261 247 231 240 240 232 230 228 234 234 230 228 227 228 227 231 234 240 249 261 272 280 291 299 307 307 303 303 304 301 299 298 296 295 293 288
162 196 230 282 115 284 257 261 236 189 247 244 252 249 249 248 250 242 235 235 231 238 239 238 228 226 228 228 230 234 240 248 260 271 283 294 301 302 302 304 306 304 303 302 300 297 294 290 287
221 139 141 194 266 263 276 283 276 236 242 214 239 237 246 247 238 238 236 242 238 243 244 240 230 228 228 228 230 235 241 249 258 272 287 294 296 298 304 307 307 307 307 305 302 299 296 292 291
168 207 228 310 233 259 271 274 115 161 170 202 224 232 246 250 248 239 236 243 241 243 241 240 230 225 225 225 228 234 240 248 260 274 284 289 295 302 306 307 308 309 308 305 301 298 295 293 293
250 234 217 224 225 234 257 271 87 78 154 188 213 248 257 247 266 241 238 240 243 245 240 235 227 224 224 224 227 231 238 248 261 272 281 290 298 305 308 308 310 310 310 309 306 303 300 297 294
Wind_Speed_850mb
14 14 10 2 8 6 7 10 2 14 12 6 13 14 20 2 6 2 18 21 11 3 2 5 7 10 12 12 11 14 16 16 18 21 21 20 21 21 22 21 20 21 22 23 22 22 22 22 25
9 8 3 3 8 8 6 11 18 16 10 21 14 8 8 6 7 8 19 15 7 3 3 6 7 8 11 13 13 17 18 22 23 24 23 24 26 29 31 31 30 31 31 30 28 27 28 28 28
12 9 4 4 4 8 2 15 15 13 26 14 10 7 5 4 13 17 23 17 10 5 8 9 7 9 10 11 15 20 23 24 26 27 29 33 34 35 32 32 35 37 37 38 38 37 36 35 35
11 5 2 9 8 3 4 15 17 27 15 11 7 7 7 20 15 24 27 19 13 12 10 4 5 7 6 5 7 10 12 15 18 20 22 27 30 34 35 37 38 38 40 42 42 43 43 43 41
12 5 6 6 7 5 7 13 26 27 17 15 16 6 7 24 28 28 29 24 20 16 13 9 7 3 4 6 7 8 10 12 15 18 19 24 26 30 33 36 38 42 43 43 43 46 47 45 45
7 4 8 10 7 6 7 16 24 27 13 10 12 8 5 21 34 36 33 29 25 21 16 12 10 10 11 11 13 14 14 15 15 16 19 22 25 28 31 35 38 40 42 44 50 51 51 48 49
6 6 5 5 5 6 8 20 26 30 21 17 6 10 7 27 41 40 38 34 28 23 18 16 15 16 16 15 14 14 14 15 16 17 19 22 26 29 32 35 38 42 43 43 47 49 54 56 55
5 4 6 7 6 7 13 21 11 28 24 18 20 12 10 34 48 48 43 38 33 29 26 24 23 22 17 15 12 9 7 7 10 13 14 18 20 23 26 29 33 38 39 39 44 48 51 51 55
6 7 8 7 11 5 16 18 12 14 11 18 23 23 21 22 51 53 50 46 43 38 35 32 30 25 20 18 14 11 7 6 6 8 12 15 19 24 27 31 35 37 39 41 43 42 44 48 53
7 6 6 3 8 6 14 22 16 13 19 21 28 44 37 29 53 59 58 55 51 46 42 38 34 28 25 20 16 11 8 5 4 6 10 14 19 24 29 31 32 34 38 41 42 42 43 43 46
3 6 3 6 12 10 11 13 14 16 22 34 38 37 48 44 56 60 58 53 51 48 46 41 35 30 25 20 17 14 10 8 8 10 13 18 23 28 32 35 37 39 39 40 42 43 44 44 44
7 9 7 3 9 10 10 9 13 34 45 25 26 32 37 53 61 65 62 58 59 54 49 43 38 32 27 22 19 15 13 10 10 12 15 19 24 29 33 37 40 42 43 43 43 44 46 46 46
9 7 10 12 13 16 13 22 20 37 45 45 45 37 40 49 59 61 60 62 62 60 54 50 43 37 32 28 23 21 16 13 13 15 17 21 26 32 36 40 43 45 47 47 47 47 47 49 52
4 9 15 13 17 14 14 14 6 16 21 36 47 50 49 53 59 60 70 72 71 63 60 54 47 40 35 30 27 24 20 17 16 17 20 23 28 34 40 44 46 48 49 50 52 54 56 57 58
3 13 14 24 12 10 11 16 24 44 32 30 39 43 49 57 59 73 74 78 75 70 64 59 51 44 39 37 34 27 22 18 19 19 21 26 32 36 40 43 47 51 55 59 60 61 62 64 65
6 5 9 9 17 6 10 30 24 22 29 37 39 40 48 58 67 69 73 76 73 71 70 62 55 49 45 40 35 29 24 22 20 20 21 25 30 35 39 44 48 51 55 58 62 64 67 69 72
10 20 17 9 23 8 22 30 8 20 27 41 46 46 50 53 62 71 77 77 78 76 70 65 58 52 46 40 34 30 27 25 23 21 21 25 30 35 40 45 49 52 55 59 63 66 69 75 76
23 15 17 21 10 17 20 40 44 54 38 66 70 58 56 56 70 71 79 80 81 78 72 66 62 58 50 43 39 36 34 30 24 20 22 27 33 38 42 46 50 54 59 62 65 68 69 71 74
14 15 33 31 7 11 35 39 49 62 56 69 71 62 57 62 58 65 75 79 83 81 77 72 69 62 54 49 45 43 39 33 28 25 25 28 34 39 44 47 49 54 59 63 68 71 73 72 76
18 26 40 27 5 14 27 43 46 45 61 71 73 72 53 49 45 56 71 81 89 87 83 78 74 67 59 56 52 50 45 39 34 28 25 30 35 40 46 46 47 54 61 65 66 70 70 69 65
23 35 29 22 10 13 21 33 15 14 37 50 67 66 46 46 46 50 63 78 88 93 91 86 78 72 66 62 56 54 50 44 35 30 31 33 35 40 42 41 48 55 62 66 68 69 69 70 67
27 20 22 16 10 24 6 39 27 21 21 23 62 42 37 44 44 46 51 66 83 94 91 87 81 75 70 65 60 57 51 43 39 35 33 33 37 39 42 45 50 59 64 68 71 72 71 69 68
11 5 10 6 15 12 24 20 20 3 13 35 34 42 38 42 42 42 47 52 60 77 90 87 83 79 75 69 62 57 53 46 43 37 34 37 38 40 42 46 53 61 67 69 69 69 71 71 72
16 6 3 3 6 19 36 30 11 9 14 18 25 28 28 30 34 34 39 40 49 61 81 89 88 85 80 73 65 60 54 48 44 37 37 39 42 42 44 48 59 66 68 69 70 71 71 74 75
10 8 12 14 12 27 5 16 35 25 22 26 33 27 21 25 32 33 39 42 46 56 68 89 94 91 85 76 67 61 54 47 42 39 40 45 44 45 47 54 61 64 67 70 72 74 74 74 76
22 15 12 24 30 46 15 23 27 21 37 50 25 37 24 28 33 40 40 41 46 51 61 82 97 94 87 77 71 63 54 46 43 42 45 44 47 50 52 57 64 67 70 71 72 76 78 80 80
17 16 5 9 4 18 24 48 15 13 24 18 37 32 47 49 45 45 43 43 46 48 57 72 93 97 90 82 73 63 54 48 44 45 44 44 48 51 58 62 68 73 74 74 74 77 79 79 78
9 13 8 7 13 37 52 60 34 22 30 18 21 37 49 45 43 47 47 45 49 50 56 67 88 99 92 83 74 65 56 49 45 43 43 45 48 55 61 67 72 75 74 73 73 75 76 75 80
12 12 10 5 12 20 40 30 8 12 11 21 27 44 34 41 45 58 51 50 55 54 60 69 83 98 98 88 77 67 57 50 43 40 41 46 51 57 63 69 73 75 74 72 73 76 79 79 82
18 32 37 19 20 20 26 62 8 13 9 12 20 32 31 28 37 52 53 56 63 65 67 75 83 99 99 89 78 67 58 48 41 40 42 47 52 56 64 70 72 72 72 73 76 79 79 80 83
Wind_Direction_850mb
156 153 152 149 232 235 158 176 190 168 178 159 148 196 209 23 202 328 163 169 177 197 14 302 273 265 276 273 258 243 233 236 239 245 252 260 267 267 266 265 270 268 272 278 285 289 292 301 303
172 159 128 245 252 237 152 160 196 174 140 134 139 139 177 193 169 163 158 171 170 204 15 310 310 296 286 272 261 259 258 262 270 274 276 276 275 273 279 280 278 276 274 273 274 276 281 284 286
161 169 220 240 250 271 249 184 178 158 148 153 150 184 184 200 183 168 179 175 176 195 241 263 297 292 275 271 269 264 265 271 276 281 286 291 288 286 286 288 287 285 280 277 278 275 270 272 274
155 150 96 250 252 234 287 178 164 147 184 199 191 194 212 194 177 187 187 184 191 206 216 230 255 259 282 297 286 276 275 280 282 283 285 282 285 288 285 280 278 280 281 283 283 281 279 276 272
173 207 223 237 227 252 214 191 177 173 174 184 187 197 211 201 191 187 183 189 191 197 197 201 224 253 296 298 300 300 292 281 282 285 288 288 290 293 295 293 289 282 277 275 276 277 278 279 277
208 228 235 247 213 226 210 188 184 199 192 172 202 197 207 213 198 191 189 193 194 200 208 217 237 253 268 273 283 293 296 300 302 307 310 311 311 308 305 299 294 293 292 287 280 275 273 272 273
251 227 280 282 271 236 203 171 200 205 214 217 219 225 201 206 200 196 198 198 203 210 218 227 234 243 251 263 273 279 292 308 318 329 335 336 332 330 325 323 318 310 301 292 286 282 277 274 271
186 235 194 203 217 242 167 174 194 203 218 219 201 233 215 210 201 199 202 204 210 213 217 222 229 235 239 245 249 262 282 318 335 343 342 342 340 334 330 327 322 319 316 309 297 289 285 280 274
167 227 234 218 193 159 168 199 194 208 201 204 208 223 227 204 202 201 203 206 210 213 217 220 224 228 231 234 236 239 258 291 326 342 345 340 338 335 333 332 331 328 325 321 317 313 302 288 281
226 257 238 192 189 222 195 215 198 197 206 230 233 235 232 221 206 207 208 209 211 213 216 218 219 219 223 223 225 226 232 250 292 317 332 338 337 335 332 333 332 332 329 327 323 318 315 309 302
213 263 175 231 225 211 211 219 203 228 232 232 227 230 231 222 211 212 215 216 216 217 217 217 219 219 219 221 224 230 244 269 293 322 333 335 337 335 334 332 332 331 332 331 330 329 326 322 317
239 243 225 229 203 188 216 179 217 224 245 253 248 243 236 221 217 217 215 212 213 217 221 222 223 224 225 227 231 241 255 275 299 313 322 328 333 333 332 331 331 331 332 331 329 327 325 323 320
230 216 225 245 241 230 226 235 246 246 251 255 258 253 238 227 223 220 217 218 220 220 221 222 223 223 225 226 232 243 251 264 282 295 310 321 326 331 333 334 331 330 328 327 325 324 323 321 319
198 256 259 263 246 237 231 245 226 256 228 231 243 247 242 233 227 218 217 219 220 221 222 222 223 225 226 229 234 239 244 256 275 293 306 316 327 333 333 331 327 323 320 321 323 323 321 318 316
300 290 274 228 225 237 210 253 233 256 248 243 241 239 236 236 226 229 226 222 222 223 224 225 224 226 225 227 231 235 245 260 276 292 308 324 331 328 326 322 319 318 321 324 324 322 320 318 316
242 252 258 155 174 198 199 273 245 254 241 244 241 235 237 234 232 229 226 224 224 223 223 223 223 224 224 226 230 234 244 257 275 292 308 320 319 319 318 318 319 320 321 321 319 320 319 318 318
215 272 235 272 205 146 211 272 255 246 247 256 251 243 242 238 229 228 226 224 225 224 223 223 223 225 227 229 233 239 246 253 263 276 298 307 311 316 316 317 316 317 319 321 320 321 321 321 320
266 247 253 261 186 214 225 256 275 271 250 262 267 259 248 235 235 233 229 225 224 224 223 224 227 228 228 229 233 238 242 247 255 271 290 303 312 313 312 312 315 321 324 325 324 324 323 322 320
267 260 262 269 204 239 252 256 267 276 273 261 267 262 251 241 248 233 229 226 226 225 225 225 226 227 226 229 232 235 238 242 251 263 283 301 304 305 309 310 318 322 321 321 321 321 320 319 320
234 261 265 281 238 216 271 270 271 265 264 268 270 268 258 247 235 227 227 226 228 229 226 225 226 227 229 232 234 235 235 238 246 259 280 288 296 306 306 313 322 320 318 316 318 318 317 316 318
229 235 255 262 319 232 290 273 239 259 253 269 264 260 253 239 232 223 225 227 228 228 227 227 227 230 231 233 234 235 236 239 249 260 272 285 300 300 304 314 317 314 312 314 315 313 311 310 310
240 230 244 259 289 277 5 290 281 260 251 256 271 260 245 244 235 228 228 227 228 230 229 228 228 230 232 234 234 235 236 241 249 259 275 289 295 303 308 311 311 311 312 313 310 308 305 303 300
247 120 180 206 250 312 254 268 278 139 248 260 259 268 243 232 232 232 236 236 235 231 231 229 229 229 231 234 235 236 239 244 253 263 277 285 296 303 302 309 313 311 307 305 303 301 298 295 292
134 117 154 157 251 255 256 228 273 206 211 251 264 251 233 217 214 224 234 230 230 231 232 228 228 229 231 232 233 236 239 246 256 269 278 291 294 299 307 313 310 304 303 304 301 296 293 292 290
197 178 280 259 231 265 163 237 264 279 236 233 253 262 226 213 210 222 232 227 226 229 230 227 227 227 229 230 232 234 239 248 259 270 284 288 296 303 311 311 304 304 304 302 299 296 295 294 289
185 219 206 266 280 288 112 252 276 226 248 250 262 261 247 231 240 240 232 230 228 234 234 230 228 227 228 227 231 234 240 249 261 272 280 291 299 307 307 303 303 304 301 299 298 296 295 293 288
162 196 230 282 115 284 257 261 236 189 247 244 252 249 249 248 250 242 235 235 231 238 239 238 228 226 228 228 230 234 240 248 260 271 283 294 301 302 302 304 306 304 303 302 300 297 294 290 287
221 139 141 194 266 263 276 283 276 236 242 214 239 237 246 247 238 238 236 242 238 243 244 240 230 228 228 228 230 235 241 249 258 272 287 294 296 298 304 307 307 307 307 305 302 299 296 292 291
168 207 228 310 233 259 271 274 115 161 170 202 224 232 246 250 248 239 236 243 241 243 241 240 230 225 225 225 228 234 240 248 260 274 284 289 295 302 306 307 308 309 308 305 301 298 295 293 293
250 234 217 224 225 234 257 271 87 78 154 188 213 248 257 247 266 241 238 240 243 245 240 235 227 224 224 224 227 231 238 248 261 272 281 290 298 305 308 308 310 310 310 309 306 303 300 297 294